Weather in Ilyinka

Russia / Voronezh Oblast     50°26′23″N   41°07′02″E
temp.,
°C
wind,
m/s
gust,
m/s
humid.,
%
clouds,
%
prec.,
mm/h
press.,
hPa
HPBL,
m
27 february, sat
sat2700:00+3w61298100 0.1 1010382
03:00+2wnw51196100 0.2 1010382
06:00+1w51195100 0.0 1009469
09:00+2wnw61293100 0.0 1009686
12:00+3wnw71177100 0.0 10091085
15:00+3wnw7117696 0.1 10091057
18:00+1wnw61293100 0.1 1010663
21:000nw5119395 0.1 1011451
28 february, sun
sun2800:000nw4109482 0.0 1012373
03:00−2n468585 0.2 1014347
06:00−3nnw488382 0.0 1014461
09:00−3nnw467981 0.0 1015501
12:00−2nnw467390 0.0 1016646
15:00−1nnw467387 0.0 1016734
18:00−2nnw467896 0.0 1017735
21:00−3nnw368198 0.0 1019601
1 march, mon
mon100:00−3n258583 0.0 1020396
03:00−4nnw238954 0.0 1021211
06:00−4n129149 0.0 1022161
09:00−4n238361 0.1 1024316
12:00−2n237189 0.0 1025552
15:00−1nnw236689 0.0 1025705
18:00−2nnw227552 0.0 102660
21:00−3nw117726 0.0 102723
2 march, tue
tue200:00−3w258021 0.0 1026158
03:00−3wsw498356 0.0 1025341
06:00−2wsw51185100 0.0 1022534
09:00−1wsw71278100 0.0 1020655
12:00+1wsw91479100 0.1 1017847
15:00+1wsw91596100 1.3 1013883
18:00+1wnw81397100 0.6 1011726
21:000nw71290100 1.3 1012784
3 march, wed
wed300:000nw6118899 0.1 1013706
03:00−1nw6108799 0.2 1013890
06:00−1nw61089100 0.1 1014816
09:00−1nw7108999 0.4 1016831
12:00−1nnw81172100 0.3 10171216
15:000nw71169100 0.4 10181327
18:00−2nnw7117899 0.1 10191008
21:00−2nw5117881 0.1 1021768